Location: ?
(35.4554°N, 139.3092°E)
Time: 22:52:32
(UTC+00:00)

Okean 1 Rocket - Pass Details

Date: 21 April 2021
Orbit: 607 x 634 km, 82.5° (Epoch: 10 May)

Event Time Altitude Azimuth Distance (km) Brightness Sun altitude
Rises 18:34:27 0° 354° (N) 2,927 6.8 -17.3°
Reaches altitude 10° 18:36:42 10° 356° (N) 2,012 6.0 -16.9°
Maximum altitude 18:41:10 78° 84° (E) 643 3.2 -16.1°
Drops below altitude 10° 18:45:34 10° 170° (S) 1,982 5.5 -15.3°
Sets 18:47:46 0° 172° (S) 2,879 6.3 -14.9°
